W6CX Weather Reports


time (UTC)temp
C
wind
direction
speed
KPH
gust
KPH
rain 1hr
cm
rain 24hr
cm
rain mn
cm
humidity
%
barometer
mb
20260506144547 10 0 0.0 4.8 0.00 0.03 0.00 90 1022.5
20260506143050 9 109 1.6 8.0 0.00 0.03 0.00 92 1022.3
20260506141549 8 113 1.6 8.0 0.00 0.03 0.00 92 1022.1
20260506140049 8 338 0.0 11.3 0.00 0.03 0.00 92 1022.0
20260506134545 8 120 3.2 17.7 0.00 0.03 0.00 92 1021.8
20260506133046 8 70 6.4 17.7 0.00 0.03 0.00 92 1021.6
20260506131550 7 360 9.7 19.3 0.00 0.03 0.00 92 1021.5
20260506130058 7 350 14.5 19.3 0.00 0.03 0.00 91 1021.4
20260506124554 8 32 8.0 17.7 0.00 0.03 0.00 91 1021.4
20260506123050 8 330 9.7 14.5 0.00 0.03 0.00 90 1021.4
20260506121547 8 18 3.2 8.0 0.00 0.03 0.00 90 1021.4
20260506120052 8 0 0.0 4.8 0.00 0.03 0.00 91 1021.3
20260506114550 8 0 0.0 3.2 0.00 0.05 0.00 92 1021.3
20260506113054 8 20 0.0 6.4 0.00 0.05 0.00 94 1021.1
20260506111549 8 27 0.0 4.8 0.00 0.05 0.00 95 1021.0
20260506110055 8 0 0.0 6.4 0.00 0.05 0.00 96 1020.8
20260506104553 8 0 0.0 4.8 0.00 0.10 0.00 96 1020.8
20260506103049 8 0 0.0 1.6 0.00 0.10 0.00 95 1020.8
20260506101552 7 97 0.0 3.2 0.00 0.10 0.00 95 1020.7
20260506094550 7 123 3.2 6.4 0.00 0.10 0.00 95 1020.6
20260506093049 7 104 1.6 6.4 0.00 0.10 0.00 96 1020.6
20260506091547 8 77 1.6 9.7 0.00 0.10 0.00 96 1020.6
20260506090052 8 0 0.0 1.6 0.00 0.10 0.00 96 1020.6
20260506084619 8 0 0.0 0.0 0.00 0.25 0.00 96 1020.7
20260506083046 8 0 0.0 3.2 0.00 0.25 0.00 96 1020.7
20260506081555 7 137 0.0 6.4 0.00 0.25 0.00 96 1020.8
20260506073051 7 0 0.0 1.6 0.00 0.33 0.00 96 1020.5
20260506071545 7 0 0.0 3.2 0.00 0.33 0.00 96 1020.5
20260506061548 7 0 0.0 3.2 0.00 0.38 0.33 96 1019.9
20260506044637 7 123 3.2 6.4 0.00 0.38 0.33 95 1019.6
20260506043049 7 125 1.6 4.8 0.00 0.38 0.33 95 1019.4
20260506041558 7 128 0.0 1.6 0.00 0.38 0.33 95 1019.0
20260506040050 8 0 0.0 0.0 0.00 0.38 0.33 95 1018.9
20260506034621 8 0 0.0 1.6 0.00 0.38 0.33 95 1018.9
20260506033043 8 0 0.0 3.2 0.00 0.38 0.33 95 1018.8
20260506031545 8 0 0.0 1.6 0.00 0.38 0.33 95 1018.4
20260506030051 8 0 0.0 0.0 0.00 0.38 0.33 95 1018.4
20260506024550 8 0 0.0 0.0 0.00 0.38 0.33 95 1018.2
20260506023104 8 0 0.0 0.0 0.00 0.38 0.33 94 1018.1
20260506021544 8 0 0.0 3.2 0.00 0.38 0.33 94 1018.0
20260506020048 8 0 0.0 0.0 0.00 0.38 0.33 94 1018.1
20260506014549 8 0 0.0 1.6 0.00 0.38 0.33 94 1017.8
20260506013049 8 0 0.0 1.6 0.00 0.38 0.33 94 1017.7
20260506011606 9 0 0.0 3.2 0.00 0.38 0.33 94 1017.8
20260506010054 9 0 0.0 4.8 0.00 0.38 0.33 93 1017.8
20260506004611 10 309 0.0 6.4 0.00 0.38 0.33 93 1017.8
20260506003103 9 0 1.6 4.8 0.00 0.38 0.33 93 1017.6
20260506001554 9 0 1.6 3.2 0.00 0.38 0.33 94 1017.6
20260506000050 9 27 0.0 3.2 0.00 0.38 0.33 94 1017.5
20260505234604 8 299 3.2 8.0 0.00 0.38 0.33 93 1017.6
20260505233052 9 0 0.0 4.8 0.00 0.38 0.33 94 1017.5
20260505231551 9 358 1.6 8.0 0.00 0.38 0.33 93 1017.7
20260505230053 10 0 0.0 4.8 0.00 0.38 0.33 94 1017.6
20260505224551 9 91 1.6 6.4 0.00 0.38 0.33 94 1017.6
20260505223048 8 0 0.0 4.8 0.00 0.38 0.33 93 1017.6
20260505221549 9 0 0.0 1.6 0.00 0.38 0.33 93 1017.7
20260505220059 9 0 0.0 4.8 0.00 0.38 0.33 93 1017.8
20260505214601 9 0 0.0 6.4 0.00 0.38 0.33 93 1017.7
20260505213054 8 0 0.0 4.8 0.00 0.38 0.33 93 1017.8
20260505211554 8 96 1.6 6.4 0.00 0.38 0.33 93 1017.8
20260505210046 8 0 1.6 8.0 0.00 0.38 0.33 92 1017.7
20260505204549 9 0 0.0 4.8 0.00 0.38 0.33 94 1017.9
20260505203051 8 0 1.6 4.8 0.00 0.38 0.33 93 1017.9
20260505201550 8 286 1.6 6.4 0.00 0.38 0.33 93 1017.9
20260505200049 8 57 3.2 6.4 0.00 0.38 0.33 92 1017.9
20260505194549 8 127 0.0 4.8 0.00 0.38 0.33 93 1017.9
20260505193055 8 332 3.2 11.3 0.00 0.38 0.33 93 1017.9
20260505191553 8 144 1.6 8.0 0.00 0.38 0.33 93 1017.5
20260505190049 7 148 1.6 9.7 0.00 0.38 0.33 93 1017.6
20260505184549 7 145 1.6 11.3 0.00 0.38 0.33 93 1017.6
20260505183047 7 132 3.2 12.9 0.00 0.38 0.33 94 1017.0
20260505181546 7 77 3.2 17.7 0.00 0.38 0.33 94 1017.0
20260505180053 6 312 4.8 17.7 0.00 0.38 0.33 94 1016.9
20260505174604 6 109 9.7 20.9 0.03 0.38 0.33 94 1016.6
20260505173049 6 187 8.0 19.3 0.03 0.38 0.33 94 1016.5
20260505171542 5 101 8.0 22.5 0.03 0.38 0.33 94 1016.2
20260505170110 5 140 9.7 27.4 0.03 0.38 0.33 94 1016.5
20260505164549 5 159 12.9 29.0 0.00 0.36 0.30 94 1016.3
20260505163046 5 141 11.3 25.7 0.00 0.36 0.30 94 1016.1
20260505161554 5 213 12.9 24.1 0.00 0.36 0.30 94 1016.0
20260505153055 5 309 6.4 17.7 0.00 0.36 0.30 95 1015.8
20260505151551 5 113 9.7 29.0 0.00 0.36 0.30 95 1015.6